This demonstration page uses our WeatherBlox Daily Observations layout. Learn more.

Left ArrowRight Arrow

41.86663, -103.66717

Hourly Observations for March 9, 2020

Temp ( °F °C ) Dew Point ( °F °C ) Humidity (%) Winds ( mph kmh ) Pressure ( in mb ) Visibility ( mi km ) Precip ( " mm )
12:06 am 00:06 Cloudy with Light Snow 34 1.1 33 0.6 97 97 NNE 6 9 30.09 1019 2 2 0.01 0.25
12:16 am 00:16 Cloudy with Light Snow 34 1.1 33 0.6 97 97 NNE 5 7 30.09 1019 3 5 0.02 0.51
12:53 am 00:53 Cloudy 34 1.1 31 -0.6 89 89 N 7 11 29.96 1015 9 14 0.03 0.76
1:53 am 01:53 Cloudy 35 1.7 32 undefined 89 89 N 7 11 29.98 1015 10 16 N/A
2:53 am 02:53 Cloudy 35 1.7 31 -0.6 85 85 N 5 7 29.99 1016 10 16 N/A
3:53 am 03:53 Cloudy 35 1.7 32 undefined 89 89 N N/A 29.99 1016 10 16 N/A
4:53 am 04:53 Partly Cloudy 33 0.6 31 -0.6 92 92 NNW 3 6 30.02 1017 10 16 N/A
5:53 am 05:53 Mostly Clear 32 undefined 30 -1.1 92 92 ENE 5 7 30.02 1017 10 16 N/A
6:53 am 06:53 Clear 29 -1.7 28 -2.2 96 96 W 5 7 30.08 1019 10 16 N/A
7:53 am 07:53 Sunny 29 -1.7 28 -2.2 96 96 E 5 7 30.09 1019 10 16 N/A
8:53 am 08:53 Sunny 33 0.6 30 -1.1 89 89 E 3 6 30.11 1020 10 16 N/A
9:53 am 09:53 Sunny 35 1.7 32 undefined 89 89 SE 6 9 30.11 1020 10 16 N/A
10:09 am 10:09 Mostly Sunny 36 2 34 1 93 93 SE 6 9 30.15 1021 10 16 N/A
10:33 am 10:33 Mostly Cloudy 38 3.3 34 1.1 86 86 SE 8 13 30.14 1021 10 16 N/A
10:53 am 10:53 Cloudy 38 3.3 35 1.7 89 89 SE 7 11 30.11 1020 10 16 N/A
11:15 am 11:15 Cloudy 39 3.9 35 1.7 86 86 ESE 9 15 30.13 1020 10 16 N/A
11:25 am 11:25 Cloudy 39 3.9 35 1.7 86 86 SE 7 11 30.13 1020 10 16 N/A
11:49 am 11:49 Mostly Cloudy 41 5 36 2 81 81 ESE 8 13 30.11 1020 10 16 N/A
11:53 am 11:53 Partly Cloudy 41 5 36 2.2 82 82 E 9 15 30.11 1020 10 16 N/A
12:53 pm 12:53 Sunny 45 7.2 37 2.8 74 74 ESE 9 15 30.07 1018 10 16 N/A
1:53 pm 13:53 Sunny 50 10 38 3.3 63 63 E 8 13 30.02 1017 10 16 N/A
2:53 pm 14:53 Sunny 53 11.7 37 2.8 55 55 undefined N/A 29.99 1016 10 16 N/A
3:53 pm 15:53 Sunny 56 13.3 36 2.2 47 47 SE 6 9 29.98 1015 10 16 N/A
4:53 pm 16:53 Mostly Cloudy 55 12.8 36 2.2 49 49 SSE 7 11 30.00 1016 10 16 N/A
5:53 pm 17:53 Sunny 55 12.8 35 1.7 47 47 SSW 8 13 30.01 1016 10 16 N/A
6:53 pm 18:53 Mostly Sunny 50 10 36 2.2 59 59 E 5 7 30.05 1018 10 16 N/A
7:53 pm 19:53 Mostly Clear 50 10 31 -0.6 48 48 N 3 6 30.08 1019 10 16 N/A
8:53 pm 20:53 Clear 46 7.8 31 -0.6 56 56 NNW 7 11 30.09 1019 10 16 N/A
9:53 pm 21:53 Mostly Cloudy 44 6.7 36 2.2 73 73 SE 7 11 30.10 1019 10 16 N/A
10:53 pm 22:53 Mostly Cloudy 42 5.6 35 1.7 76 76 E 7 11 30.11 1020 10 16 N/A
11:53 pm 23:53 Mostly Cloudy 41 5 35 1.7 79 79 ESE 6 9 30.11 1020 10 16 N/A

Powered by AerisWeather